Regional Weather Roundup
Issued by NWS

Home | Current Version | Previous Version | Text Only | Print | Product List | Glossary On
Versions: 1 2 3 4 5 6 7 8 9 10 11 12 13 14 15 16 17 18 19 20 21 22 23 24 25 26 27 28 29 30 31 32 33 34 35 36 37 38 39 40 41 42 43 44 45 46 47 48 49 50
000
ASUS43 KLMK 011602
RWRKY
KENTUCKY REGIONAL WEATHER ROUNDUP
NATIONAL WEATHER SERVICE LOUISVILLE KY
1100 AM EST SUN MAR 01 2015

NOTE "FAIR" INDICATES FEW OR NO CLOUDS BELOW 12,000 FEET
WITH NO SIGNIFICANT WEATHER AND/OR OBSTRUCTIONS TO VISIBILITY.

KYZ001>023-026-027-061>063-070>075-011700-
WESTERN AND SOUTH CENTRAL KENTUCKY

CITY           SKY/WX    TMP DP  RH WIND       PRES   REMARKS
PADUCAH        CLOUDY    37  32  82 NW3       30.35F
HENDERSON      CLOUDY    34  28  80 W3        30.36F
OWENSBORO      CLOUDY    35  33  92 S8        30.35F FOG     WCI  28
HOPKINSVILLE   LGT RAIN  36  33  91 SE1       30.38F
BOWLING GREEN  LGT RAIN  40  35  83 CALM      30.39S
GLASGOW        NOT AVBL
$$

KYZ024-025-028>034-038-045-046-053-011700-
NORTH CENTRAL KENTUCKY

CITY           SKY/WX    TMP DP  RH WIND       PRES   REMARKS
LOUISVILLE/SDF LGT RAIN  35  32  88 SE8       30.35F FOG     WCI  29
LOUISVILLE/LOU LGT RAIN  35  32  88 S5        30.35F FOG     WCI  31
FORT KNOX      LGT RAIN  36  34  93 S7        30.33F WCI  30
$$

KYZ035>037-039>044-047>052-055>060-089>105-011700-
NORTHEAST KENTUCKY

CITY           SKY/WX    TMP DP  RH WIND       PRES   REMARKS
LEXINGTON      RAIN      38  35  89 S10       30.37S FOG     WCI  31
COVINGTON      LGT RAIN  34  28  79 S5        30.33F WCI  30
FRANKFORT      MIX PCPN  36  33  89 S6        30.35F FOG     WCI  31
$$

KYZ054-064>069-076>088-106>120-011700-
SOUTHEAST KENTUCKY

CITY           SKY/WX    TMP DP  RH WIND       PRES   REMARKS
JACKSON        CLOUDY    39  29  67 CALM      30.37F
LONDON         CLOUDY    44  28  53 S3        30.38F
SOMERSET       NOT AVBL
MIDDLESBORO    NOT AVBL
MONTICELLO     CLOUDY    49  41  74 S6        30.41R
$$




USA.gov is the U.S. government's official web portal to all federal, state and local government web resources and services.